{"data":{"norad_id":59574,"epoch":"2026-09-21T11:41:25.220544Z","epoch_age_seconds":82932,"freshness":"FRESH","line1":"1 59574U 24076L   26264.48709746 -.00000139  00000+0  44860-5 0  9994","line2":"2 59574  43.0051 343.5686 0001461 256.3190 103.7499 15.27584571136444","mean_motion":15.27584571,"eccentricity":0.0001461,"inclination_deg":43.0051,"raan_deg":343.5686,"arg_perigee_deg":256.319,"mean_anomaly_deg":103.7499,"bstar":4.486e-6,"rev_number":13644,"period_min":94.266466638723,"perigee_km":482.03299156644,"apogee_km":484.03782614431,"semimajor_km":6861.1724088554,"source":"CELESTRAK","updated_at":"2026-09-22T09:00:49.002573Z"}}